{"data":{"norad_id":63446,"epoch":"2026-09-20T10:47:24.820512Z","epoch_age_seconds":159808,"freshness":"FRESH","line1":"1 63446U 25069P   26263.44959283  .00022727  00000+0  68167-3 0  9998","line2":"2 63446  53.1602 309.9954 0001163  83.8567 276.2568 15.34403101 83288","mean_motion":15.34403101,"eccentricity":0.0001163,"inclination_deg":53.1602,"raan_deg":309.9954,"arg_perigee_deg":83.8567,"mean_anomaly_deg":276.2568,"bstar":0.00068167,"rev_number":8328,"period_min":93.847568416769,"perigee_km":461.8984347491,"apogee_km":463.48961204514,"semimajor_km":6840.8310233971,"source":"CELESTRAK","updated_at":"2026-09-21T09:00:35.003822Z"}}